Weather in Novomar'evskaya

Russia / Stavropol Krai     45°08′11″N   41°48′30″E
temp.,
°C
wind,
m/s
gust,
m/s
humid.,
%
clouds,
%
prec.,
mm/h
press.,
hPa
HPBL,
m
7 may, fri
fri700:00+12sse4864100 0.0 1013137
03:00+11se336763 0.0 101430
06:00+11sw377582 0.0 1015174
09:00+16w57675 0.1 1017560
12:00+18w69480 0.0 10171260
15:00+19wnw56490 0.0 10171408
18:00+17wnw34665 0.0 1017194
21:00+13s227319 0.0 101911
8 may, sat
sat800:00+12sse22745 0.0 101811
03:00+11se22734 0.0 101712
06:00+12ese34765 0.0 101669
09:00+18se576159 0.0 1015675
12:00+21se5553100 0.0 10141166
15:00+23se4450100 0.0 10131442
18:00+20se4769100 0.0 1012207
21:00+16se477199 0.0 1012104
9 may, sun
sun900:00+14sse337096 0.0 101148
03:00+13se2274100 0.0 100916
06:00+13wsw3781100 0.0 1009189
09:00+13wnw71194100 1.1 1010711
12:00+13wnw4592100 1.1 1011491
15:00+9w81297100 1.7 1014633
18:00+5wnw71095100 3.9 1019941
21:00+5wnw71097100 4.4 10221022
10 may, mon
mon1000:00+5wnw71095100 0.4 1022926
03:00+5wnw71295100 1.0 10231062
06:00+6w81393100 1.2 1022918
09:00+6wnw71094100 1.8 10221081
12:00+8nw81185100 0.6 10211207
15:00+7wnw91386100 0.9 10201106
18:00+4w91496100 0.6 1020803
21:00+4wsw101597100 4.0 1018877
11 may, tue
tue1100:00+5wsw131996100 9.1 10141046
03:00+5wsw152395100 20.6 10121083
06:00+6wsw132293100 5.2 10131124
09:00+7sw91892100 7.8 10161235
12:00+7s61192100 4.1 10191066
15:00+8se3589100 5.4 1020182
18:00+9ese2492100 0.0 1020149
21:00+9e4129052 0.3 1020350